Flag for Canada Weather past 2 weeks in Chilliwack, British Columbia, Canada

Now
60 °F

Cool.


Feels Like: 60 °F
Forecast: 58 / 64 °F
Wind: 3 mph from Southeast

Location: Agassiz

Current Time: Aug 31, 2015 at 1:14:36 PM

Latest Report: Aug 31, 2015 at 12:00 PM


Visibility: N/A

Pressure: 29.88 "Hg

Humidity: 91%

Dew point: 57 °F

Location of ChilliwackLocation

Historic Weather in Chilliwack — Graph

°F

Chilliwack temperature yesterday

Maximum temperature yesterday: 67 °F (at 3:00 PM)
Minimum temperature yesterday: 55 °F (at 6:00 AM)
Average temperature yesterday: 59 °F

Past Weeks' High & Low Weather Summary

 TemperatureHumidityPressure
High91 °F (Aug 18, 4:00 PM)100% (Aug 31, 7:00 AM)30.22 "Hg (Aug 31, 7:00 AM)
Low46 °F (Aug 25, 6:00 AM)25% (Aug 22, 3:00 PM)29.49 "Hg (Aug 29, 7:00 AM)
Average66 °F69%29.95 "Hg
* Reported Aug 16 12:00 Noon — Aug 31 12:00 Noon, Chilliwack, Weather by CustomWeather, © 2015

Note: Actual official high and low records may vary slightly from our data, if they occured in-between our weather recording intervals... More about our weather records

Advertising

Chilliwack weather history for previous 24 hours

 ConditionsComfort  
Time TempWeatherWind HumidityBarometerVisibility
12:00 PM
Mon, Aug 31
60 °FCool.3 mph91%29.88 "HgN/A
11:00 AM60 °FCool.3 mph89%29.87 "HgN/A
10:00 AM59 °FCool.2 mph92%29.87 "HgN/A
9:00 AM58 °FCool.2 mph92%29.86 "HgN/A
8:00 AM57 °FCool.2 mph94%29.86 "HgN/A
7:00 AM54 °FCool.No wind100%29.85 "HgN/A
6:00 AM56 °FCool.1 mph96%29.85 "HgN/A
5:00 AM56 °FCool.1 mph94%29.85 "HgN/A
4:00 AM57 °FCool.6 mph91%29.85 "HgN/A
3:00 AM57 °FCool.1 mph94%29.86 "HgN/A
2:00 AM57 °FCool.1 mph95%29.86 "HgN/A
1:00 AM58 °FCool.1 mph93%29.88 "HgN/A
12:00 AM58 °FCool.No wind95%29.89 "HgN/A
11:00 PM
Sun, Aug 30
58 °FCool.2 mph94%29.90 "HgN/A
10:00 PM58 °FCool.2 mph93%29.91 "HgN/A
9:00 PM59 °FCool.3 mph92%29.91 "HgN/A
8:00 PM59 °FCool.1 mph92%29.89 "HgN/A
7:00 PM58 °FCool.2 mph93%29.88 "HgN/A
6:00 PM59 °FCool.1 mph90%29.88 "HgN/A
5:00 PM64 °FMild.2 mph73%29.88 "HgN/A
4:00 PM66 °FMild.3 mph56%29.88 "HgN/A
3:00 PM67 °FMild.2 mph59%29.89 "HgN/A
2:00 PM63 °FMild.5 mph70%29.89 "HgN/A
1:00 PM64 °FMild.3 mph64%29.87 "HgN/A
Weather by CustomWeather, © 2015

See weather overviewHow to use our weather pages